Time,TemperatureF,DewpointF,PressureIn,WindDirection,WindDirectionDegrees,WindSpeedMPH,WindSpeedGustMPH,Humidity,HourlyPrecipIn,Conditions,Clouds,dailyrainin,SoftwareType,DateUTC
2013-03-21 00:04:00,23.4,10.7,30.14,North,0,0.0,0.0,58,0.00,,,0.00,WUHU21623XXSP,2013-03-21 05:04:00,
2013-03-21 00:09:00,23.2,10.9,30.15,North,0,0.0,0.0,59,0.00,,,0.00,WUHU21623XXSP,2013-03-21 05:09:00,
2013-03-21 00:14:00,23.2,10.9,30.14,North,0,0.0,0.0,59,0.00,,,0.00,WUHU21623XXSP,2013-03-21 05:14:00,
2013-03-21 00:19:00,23.0,10.3,30.14,North,0,0.0,0.0,58,0.00,,,0.00,WUHU21623XXSP,2013-03-21 05:19:00,
2013-03-21 00:24:00,22.8,10.5,30.14,North,0,0.0,0.0,59,0.00,,,0.00,WUHU21623XXSP,2013-03-21 05:24:00,
2013-03-21 00:29:00,22.8,10.5,30.14,North,0,0.0,0.0,59,0.00,,,0.00,WUHU21623XXSP,2013-03-21 05:29:00,
2013-03-21 00:34:00,22.6,10.8,30.15,North,0,0.0,0.0,60,0.00,,,0.00,WUHU21623XXSP,2013-03-21 05:34:00,
2013-03-21 00:39:00,22.6,10.8,30.14,North,0,0.0,0.0,60,0.00,,,0.00,WUHU21623XXSP,2013-03-21 05:39:00,
2013-03-21 00:44:00,22.5,11.0,30.14,North,0,0.0,0.0,61,0.00,,,0.00,WUHU21623XXSP,2013-03-21 05:44:00,
2013-03-21 00:49:00,22.6,11.0,30.15,North,0,0.0,0.0,61,0.00,,,0.00,WUHU21623XXSP,2013-03-21 05:49:00,
2013-03-21 00:54:00,22.6,11.1,30.15,North,0,0.0,0.0,61,0.00,,,0.00,WUHU21623XXSP,2013-03-21 05:54:00,
2013-03-21 00:59:00,22.5,11.1,30.14,North,0,0.0,0.0,61,0.00,,,0.00,WUHU21623XXSP,2013-03-21 05:59:00,
2013-03-21 01:05:00,22.5,11.1,30.14,North,0,0.0,0.0,61,0.00,,,0.00,WUHU21623XXSP,2013-03-21 06:05:00,
2013-03-21 01:12:00,22.3,10.8,30.14,North,0,0.0,0.0,61,0.00,,,0.00,WUHU21623XXSP,2013-03-21 06:12:00,
2013-03-21 01:17:00,22.3,10.8,30.14,North,0,0.0,0.0,61,0.00,,,0.00,WUHU21623XXSP,2013-03-21 06:17:00,
2013-03-21 01:22:00,22.1,10.8,30.14,North,0,0.0,0.0,61,0.00,,,0.00,WUHU21623XXSP,2013-03-21 06:22:00,
2013-03-21 01:27:00,22.1,10.7,30.14,North,0,0.0,0.0,61,0.00,,,0.00,WUHU21623XXSP,2013-03-21 06:27:00,
2013-03-21 01:32:00,22.1,11.0,30.14,North,0,0.0,0.0,62,0.00,,,0.00,WUHU21623XXSP,2013-03-21 06:32:00,
2013-03-21 01:37:00,21.9,10.8,30.13,North,0,0.0,0.0,62,0.00,,,0.00,WUHU21623XXSP,2013-03-21 06:37:00,
2013-03-21 01:42:00,21.9,10.8,30.14,North,0,0.0,0.0,62,0.00,,,0.00,WUHU21623XXSP,2013-03-21 06:42:00,
2013-03-21 01:47:00,21.7,10.7,30.13,North,0,0.0,0.0,62,0.00,,,0.00,WUHU21623XXSP,2013-03-21 06:47:00,
2013-03-21 01:52:00,21.6,10.7,30.13,North,0,0.0,0.0,62,0.00,,,0.00,WUHU21623XXSP,2013-03-21 06:52:00,
2013-03-21 01:57:00,21.6,10.5,30.13,North,0,0.0,0.0,62,0.00,,,0.00,WUHU21623XXSP,2013-03-21 06:57:00,
2013-03-21 02:02:00,21.4,10.3,30.13,North,0,0.0,0.0,62,0.00,,,0.00,WUHU21623XXSP,2013-03-21 07:02:00,
2013-03-21 02:08:00,21.4,10.7,30.13,North,0,0.0,0.0,63,0.00,,,0.00,WUHU21623XXSP,2013-03-21 07:08:00,
2013-03-21 02:13:00,21.0,10.3,30.13,North,0,0.0,0.0,63,0.00,,,0.00,WUHU21623XXSP,2013-03-21 07:13:00,
2013-03-21 02:18:00,21.0,10.3,30.13,North,0,0.0,0.0,63,0.00,,,0.00,WUHU21623XXSP,2013-03-21 07:18:00,
2013-03-21 02:23:00,21.0,10.3,30.13,North,0,0.0,0.0,63,0.00,,,0.00,WUHU21623XXSP,2013-03-21 07:23:00,
2013-03-21 02:28:00,20.8,10.2,30.13,North,0,0.0,0.0,63,0.00,,,0.00,WUHU21623XXSP,2013-03-21 07:28:00,
2013-03-21 02:34:00,20.8,10.5,30.13,North,0,0.0,0.0,64,0.00,,,0.00,WUHU21623XXSP,2013-03-21 07:34:00,
2013-03-21 02:39:00,20.5,10.5,30.12,North,0,0.0,0.0,64,0.00,,,0.00,WUHU21623XXSP,2013-03-21 07:39:00,
2013-03-21 02:44:00,20.5,10.1,30.13,North,0,0.0,0.0,64,0.00,,,0.00,WUHU21623XXSP,2013-03-21 07:44:00,
2013-03-21 02:49:00,20.5,10.5,30.13,North,0,0.0,0.0,65,0.00,,,0.00,WUHU21623XXSP,2013-03-21 07:49:00,
2013-03-21 02:54:00,20.3,10.3,30.12,North,0,0.0,0.0,65,0.00,,,0.00,WUHU21623XXSP,2013-03-21 07:54:00,
2013-03-21 02:59:00,20.1,10.1,30.12,North,0,0.0,0.0,65,0.00,,,0.00,WUHU21623XXSP,2013-03-21 07:59:00,
2013-03-21 03:04:00,20.1,10.1,30.12,North,0,0.0,0.0,65,0.00,,,0.00,WUHU21623XXSP,2013-03-21 08:04:00,
2013-03-21 03:09:00,20.1,10.1,30.12,North,0,0.0,0.0,65,0.00,,,0.00,WUHU21623XXSP,2013-03-21 08:09:00,
2013-03-21 03:14:00,20.1,10.1,30.12,North,0,0.0,0.0,66,0.00,,,0.00,WUHU21623XXSP,2013-03-21 08:14:00,
2013-03-21 03:19:00,19.9,10.3,30.12,North,0,0.0,0.0,66,0.00,,,0.00,WUHU21623XXSP,2013-03-21 08:19:00,
2013-03-21 03:24:00,19.8,10.1,30.12,North,0,0.0,0.0,66,0.00,,,0.00,WUHU21623XXSP,2013-03-21 08:24:00,
2013-03-21 03:29:00,19.8,10.1,30.12,North,0,0.0,0.0,66,0.00,,,0.00,WUHU21623XXSP,2013-03-21 08:29:00,
2013-03-21 03:34:00,19.6,10.3,30.12,North,0,0.0,0.0,67,0.00,,,0.00,WUHU21623XXSP,2013-03-21 08:34:00,
2013-03-21 03:39:00,19.6,10.3,30.12,North,0,0.0,0.0,67,0.00,,,0.00,WUHU21623XXSP,2013-03-21 08:39:00,
2013-03-21 03:44:00,19.6,10.3,30.12,North,0,0.0,0.0,67,0.00,,,0.00,WUHU21623XXSP,2013-03-21 08:44:00,
2013-03-21 03:49:00,19.4,10.1,30.12,North,0,0.0,0.0,67,0.00,,,0.00,WUHU21623XXSP,2013-03-21 08:49:00,
2013-03-21 03:54:00,19.2,10.1,30.11,North,0,0.0,0.0,67,0.00,,,0.00,WUHU21623XXSP,2013-03-21 08:54:00,
2013-03-21 03:59:00,19.2,9.9,30.11,North,0,0.0,0.0,67,0.00,,,0.00,WUHU21623XXSP,2013-03-21 08:59:00,
2013-03-21 04:04:00,19.2,9.9,30.11,North,0,0.0,0.0,67,0.00,,,0.00,WUHU21623XXSP,2013-03-21 09:04:00,
2013-03-21 04:09:00,19.0,10.1,30.11,North,0,0.0,0.0,68,0.00,,,0.00,WUHU21623XXSP,2013-03-21 09:09:00,
2013-03-21 04:14:00,18.9,10.1,30.11,North,0,0.0,0.0,68,0.00,,,0.00,WUHU21623XXSP,2013-03-21 09:14:00,
2013-03-21 04:19:00,18.7,9.8,30.11,North,0,0.0,0.0,68,0.00,,,0.00,WUHU21623XXSP,2013-03-21 09:19:00,
2013-03-21 04:24:00,18.5,9.6,30.11,North,0,0.0,0.0,68,0.00,,,0.00,WUHU21623XXSP,2013-03-21 09:24:00,
2013-03-21 04:29:00,18.5,9.6,30.11,North,0,0.0,0.0,68,0.00,,,0.00,WUHU21623XXSP,2013-03-21 09:29:00,
2013-03-21 04:34:00,18.3,9.5,30.11,North,0,0.0,0.0,68,0.00,,,0.00,WUHU21623XXSP,2013-03-21 09:34:00,
2013-03-21 04:40:00,18.3,9.5,30.11,North,0,0.0,0.0,68,0.00,,,0.00,WUHU21623XXSP,2013-03-21 09:40:00,
2013-03-21 04:45:00,18.3,9.5,30.11,North,0,0.0,0.0,68,0.00,,,0.00,WUHU21623XXSP,2013-03-21 09:45:00,
2013-03-21 04:50:00,18.1,9.5,30.11,North,0,0.0,0.0,68,0.00,,,0.00,WUHU21623XXSP,2013-03-21 09:50:00,
2013-03-21 04:55:00,18.1,9.6,30.11,North,0,0.0,0.0,69,0.00,,,0.00,WUHU21623XXSP,2013-03-21 09:55:00,
2013-03-21 05:00:00,18.1,9.6,30.11,North,0,0.0,0.0,69,0.00,,,0.00,WUHU21623XXSP,2013-03-21 10:00:00,
2013-03-21 05:05:00,18.0,9.5,30.11,North,0,0.0,0.0,69,0.00,,,0.00,WUHU21623XXSP,2013-03-21 10:05:00,
2013-03-21 05:10:00,18.0,9.5,30.11,North,0,0.0,0.0,70,0.00,,,0.00,WUHU21623XXSP,2013-03-21 10:10:00,
2013-03-21 05:15:00,18.0,9.8,30.11,North,0,0.0,0.0,70,0.00,,,0.00,WUHU21623XXSP,2013-03-21 10:15:00,
2013-03-21 05:20:00,18.0,9.8,30.12,North,0,0.0,0.0,70,0.00,,,0.00,WUHU21623XXSP,2013-03-21 10:20:00,
2013-03-21 05:25:00,17.8,9.7,30.12,North,0,0.0,0.0,70,0.00,,,0.00,WUHU21623XXSP,2013-03-21 10:25:00,
2013-03-21 05:30:00,17.8,9.7,30.12,North,0,0.0,0.0,70,0.00,,,0.00,WUHU21623XXSP,2013-03-21 10:30:00,
2013-03-21 05:35:00,17.6,9.5,30.12,North,0,0.0,0.0,70,0.00,,,0.00,WUHU21623XXSP,2013-03-21 10:35:00,
2013-03-21 05:40:00,17.4,9.9,30.12,North,0,0.0,0.0,71,0.00,,,0.00,WUHU21623XXSP,2013-03-21 10:40:00,
2013-03-21 05:45:00,17.4,9.6,30.11,North,0,0.0,0.0,71,0.00,,,0.00,WUHU21623XXSP,2013-03-21 10:45:00,
2013-03-21 05:50:00,17.4,9.6,30.12,North,0,0.0,0.0,71,0.00,,,0.00,WUHU21623XXSP,2013-03-21 10:50:00,
2013-03-21 05:55:00,17.4,9.6,30.12,North,0,0.0,0.0,71,0.00,,,0.00,WUHU21623XXSP,2013-03-21 10:55:00,
2013-03-21 06:00:00,17.2,9.4,30.12,North,0,0.0,0.0,71,0.00,,,0.00,WUHU21623XXSP,2013-03-21 11:00:00,
2013-03-21 06:05:00,17.2,9.6,30.12,North,0,0.0,0.0,71,0.00,,,0.00,WUHU21623XXSP,2013-03-21 11:05:00,
2013-03-21 06:10:00,17.2,9.4,30.12,North,0,0.0,0.0,71,0.00,,,0.00,WUHU21623XXSP,2013-03-21 11:10:00,
2013-03-21 06:15:00,17.2,9.4,30.12,North,0,0.0,0.0,71,0.00,,,0.00,WUHU21623XXSP,2013-03-21 11:15:00,
2013-03-21 06:20:00,16.9,9.2,30.12,North,0,0.0,0.0,72,0.00,,,0.00,WUHU21623XXSP,2013-03-21 11:20:00,
2013-03-21 06:25:00,16.9,9.4,30.13,North,0,0.0,0.0,72,0.00,,,0.00,WUHU21623XXSP,2013-03-21 11:25:00,
2013-03-21 06:30:00,16.9,9.4,30.12,North,0,0.0,0.0,72,0.00,,,0.00,WUHU21623XXSP,2013-03-21 11:30:00,
2013-03-21 06:35:00,16.9,9.4,30.13,North,0,0.0,0.0,72,0.00,,,0.00,WUHU21623XXSP,2013-03-21 11:35:00,
2013-03-21 06:40:00,16.9,9.4,30.13,North,0,0.0,0.0,72,0.00,,,0.00,WUHU21623XXSP,2013-03-21 11:40:00,
2013-03-21 06:45:00,16.9,9.7,30.13,North,0,0.0,0.0,73,0.00,,,0.00,WUHU21623XXSP,2013-03-21 11:45:00,
2013-03-21 06:50:00,16.9,9.7,30.12,North,0,0.0,0.0,73,0.00,,,0.00,WUHU21623XXSP,2013-03-21 11:50:00,
2013-03-21 06:55:00,16.9,9.7,30.13,North,0,0.0,0.0,73,0.00,,,0.00,WUHU21623XXSP,2013-03-21 11:55:00,
2013-03-21 07:00:00,16.7,9.5,30.12,North,0,0.0,0.0,73,0.00,,,0.00,WUHU21623XXSP,2013-03-21 12:00:00,
2013-03-21 07:05:00,16.7,9.5,30.12,North,0,0.0,0.0,73,0.00,,,0.00,WUHU21623XXSP,2013-03-21 12:05:00,
2013-03-21 07:10:00,16.5,9.5,30.12,North,0,0.0,0.0,73,0.00,,,0.00,WUHU21623XXSP,2013-03-21 12:10:00,
2013-03-21 07:15:00,16.5,9.6,30.12,North,0,0.0,0.0,74,0.00,,,0.00,WUHU21623XXSP,2013-03-21 12:15:00,
2013-03-21 07:20:00,16.7,9.8,30.12,North,0,0.0,0.0,74,0.00,,,0.00,WUHU21623XXSP,2013-03-21 12:20:00,
2013-03-21 07:25:00,16.7,9.8,30.12,North,0,0.0,0.0,74,0.00,,,0.00,WUHU21623XXSP,2013-03-21 12:25:00,
2013-03-21 07:30:00,16.9,9.8,30.12,North,0,0.0,0.0,74,0.00,,,0.00,WUHU21623XXSP,2013-03-21 12:30:00,
2013-03-21 07:35:00,16.9,9.9,30.12,North,0,0.0,0.0,74,0.00,,,0.00,WUHU21623XXSP,2013-03-21 12:35:00,
2013-03-21 07:40:00,17.4,10.8,30.12,North,0,0.0,0.0,75,0.00,,,0.00,WUHU21623XXSP,2013-03-21 12:40:00,
2013-03-21 07:45:00,17.8,10.8,30.11,North,0,0.0,0.0,75,0.00,,,0.00,WUHU21623XXSP,2013-03-21 12:45:00,
2013-03-21 07:51:00,18.1,11.7,30.11,North,0,0.0,0.0,76,0.00,,,0.00,WUHU21623XXSP,2013-03-21 12:51:00,
2013-03-21 07:56:00,19.0,12.3,30.12,North,0,0.0,0.0,76,0.00,,,0.00,WUHU21623XXSP,2013-03-21 12:56:00,
2013-03-21 08:01:00,19.2,12.5,30.12,North,0,0.0,0.0,75,0.00,,,0.00,WUHU21623XXSP,2013-03-21 13:01:00,
2013-03-21 08:06:00,19.6,13.1,30.12,North,0,0.0,0.0,75,0.00,,,0.00,WUHU21623XXSP,2013-03-21 13:06:00,
2013-03-21 08:11:00,20.5,13.7,30.12,North,0,0.0,0.0,75,0.00,,,0.00,WUHU21623XXSP,2013-03-21 13:11:00,
2013-03-21 08:16:00,20.8,14.1,30.12,North,0,0.0,0.0,75,0.00,,,0.00,WUHU21623XXSP,2013-03-21 13:16:00,
2013-03-21 08:21:00,21.4,14.3,30.12,North,0,0.0,0.0,74,0.00,,,0.00,WUHU21623XXSP,2013-03-21 13:21:00,
2013-03-21 08:26:00,21.7,14.5,30.12,North,0,0.0,0.0,74,0.00,,,0.00,WUHU21623XXSP,2013-03-21 13:26:00,
2013-03-21 08:31:00,21.9,14.6,30.12,North,0,0.0,0.0,73,0.00,,,0.00,WUHU21623XXSP,2013-03-21 13:31:00,
2013-03-21 08:36:00,22.5,14.9,30.12,North,0,0.0,0.0,73,0.00,,,0.00,WUHU21623XXSP,2013-03-21 13:36:00,
2013-03-21 08:41:00,23.0,15.3,30.12,North,0,0.0,0.0,72,0.00,,,0.00,WUHU21623XXSP,2013-03-21 13:41:00,
2013-03-21 08:46:00,23.5,15.5,30.13,North,0,0.0,0.0,71,0.00,,,0.00,WUHU21623XXSP,2013-03-21 13:46:00,
2013-03-21 08:51:00,24.1,15.7,30.13,North,0,0.0,0.0,70,0.00,,,0.00,WUHU21623XXSP,2013-03-21 13:51:00,
2013-03-21 08:56:00,24.6,16.0,30.13,North,0,0.0,0.0,70,0.00,,,0.00,WUHU21623XXSP,2013-03-21 13:56:00,
2013-03-21 09:01:00,25.0,16.2,30.12,North,0,0.0,0.0,69,0.00,,,0.00,WUHU21623XXSP,2013-03-21 14:01:00,
2013-03-21 09:06:00,25.5,16.0,30.13,North,0,0.0,0.0,67,0.00,,,0.00,WUHU21623XXSP,2013-03-21 14:06:00,
2013-03-21 09:11:00,25.5,16.0,30.13,North,0,0.0,0.0,67,0.00,,,0.00,WUHU21623XXSP,2013-03-21 14:11:00,
2013-03-21 09:16:00,26.1,16.5,30.13,North,0,0.0,0.0,67,0.00,,,0.00,WUHU21623XXSP,2013-03-21 14:16:00,
2013-03-21 09:21:00,26.4,16.5,30.13,North,0,0.0,0.0,66,0.00,,,0.00,WUHU21623XXSP,2013-03-21 14:21:00,
2013-03-21 09:26:00,26.8,16.5,30.13,North,0,0.0,0.0,66,0.00,,,0.00,WUHU21623XXSP,2013-03-21 14:26:00,
2013-03-21 09:31:00,27.1,16.7,30.13,North,0,0.0,0.0,65,0.00,,,0.00,WUHU21623XXSP,2013-03-21 14:31:00,
2013-03-21 09:36:00,27.3,16.5,30.13,North,0,0.0,0.0,64,0.00,,,0.00,WUHU21623XXSP,2013-03-21 14:36:00,
2013-03-21 09:42:00,27.7,16.7,30.13,North,0,0.0,0.0,63,0.00,,,0.00,WUHU21623XXSP,2013-03-21 14:42:00,
2013-03-21 09:47:00,28.0,16.9,30.13,North,0,0.0,0.0,63,0.00,,,0.00,WUHU21623XXSP,2013-03-21 14:47:00,
2013-03-21 09:52:00,28.2,16.9,30.13,North,0,0.0,0.0,62,0.00,,,0.00,WUHU21623XXSP,2013-03-21 14:52:00,
2013-03-21 09:57:00,28.2,16.9,30.13,North,0,0.0,0.0,62,0.00,,,0.00,WUHU21623XXSP,2013-03-21 14:57:00,
2013-03-21 10:02:00,28.9,16.4,30.13,North,0,0.0,0.0,59,0.00,,,0.00,WUHU21623XXSP,2013-03-21 15:02:00,
2013-03-21 10:07:00,28.9,16.0,30.13,North,0,0.0,0.0,58,0.00,,,0.00,WUHU21623XXSP,2013-03-21 15:07:00,
2013-03-21 10:12:00,29.1,15.7,30.13,North,0,0.0,0.0,57,0.00,,,0.00,WUHU21623XXSP,2013-03-21 15:12:00,
2013-03-21 10:17:00,29.5,15.7,30.12,North,0,0.0,0.0,56,0.00,,,0.00,WUHU21623XXSP,2013-03-21 15:17:00,
2013-03-21 10:22:00,29.8,15.8,30.12,North,0,0.0,0.0,56,0.00,,,0.00,WUHU21623XXSP,2013-03-21 15:22:00,
2013-03-21 10:27:00,30.2,16.3,30.12,North,0,0.0,0.0,56,0.00,,,0.00,WUHU21623XXSP,2013-03-21 15:27:00,
2013-03-21 10:32:00,30.6,15.4,30.12,North,0,0.0,0.0,53,0.00,,,0.00,WUHU21623XXSP,2013-03-21 15:32:00,
2013-03-21 10:37:00,30.6,15.5,30.12,North,0,0.0,0.0,52,0.00,,,0.00,WUHU21623XXSP,2013-03-21 15:37:00,
2013-03-21 10:42:00,30.7,15.1,30.12,North,0,0.0,0.0,52,0.00,,,0.00,WUHU21623XXSP,2013-03-21 15:42:00,
2013-03-21 10:47:00,30.9,15.3,30.12,North,0,0.0,0.0,52,0.00,,,0.00,WUHU21623XXSP,2013-03-21 15:47:00,
2013-03-21 10:52:00,31.3,15.0,30.12,North,0,0.0,0.0,52,0.00,,,0.00,WUHU21623XXSP,2013-03-21 15:52:00,
2013-03-21 10:57:00,31.3,15.2,30.12,North,0,0.0,0.0,51,0.00,,,0.00,WUHU21623XXSP,2013-03-21 15:57:00,
2013-03-21 11:02:00,31.8,16.1,30.12,North,0,0.0,0.0,52,0.00,,,0.00,WUHU21623XXSP,2013-03-21 16:02:00,
2013-03-21 11:07:00,32.4,16.2,30.12,North,0,0.0,0.0,51,0.00,,,0.00,WUHU21623XXSP,2013-03-21 16:07:00,
2013-03-21 11:12:00,32.9,16.4,30.12,North,0,0.0,0.0,51,0.00,,,0.00,WUHU21623XXSP,2013-03-21 16:12:00,
2013-03-21 11:17:00,33.1,16.3,30.12,North,0,0.0,0.0,50,0.00,,,0.00,WUHU21623XXSP,2013-03-21 16:17:00,
2013-03-21 11:22:00,33.3,16.4,30.12,North,0,0.0,0.0,51,0.00,,,0.00,WUHU21623XXSP,2013-03-21 16:22:00,
2013-03-21 11:27:00,34.2,16.9,30.11,North,0,0.0,0.0,50,0.00,,,0.00,WUHU21623XXSP,2013-03-21 16:27:00,
2013-03-21 11:32:00,35.8,18.5,30.11,North,0,0.0,0.0,49,0.00,,,0.00,WUHU21623XXSP,2013-03-21 16:32:00,
2013-03-21 11:37:00,36.5,19.1,30.11,North,0,0.0,0.0,49,0.00,,,0.00,WUHU21623XXSP,2013-03-21 16:37:00,
2013-03-21 11:42:00,36.5,18.1,30.11,North,0,0.0,0.0,47,0.00,,,0.00,WUHU21623XXSP,2013-03-21 16:42:00,
2013-03-21 11:47:00,35.8,17.8,30.10,North,0,0.0,0.0,48,0.00,,,0.00,WUHU21623XXSP,2013-03-21 16:47:00,
2013-03-21 11:52:00,35.2,17.6,30.10,North,0,0.0,0.0,48,0.00,,,0.00,WUHU21623XXSP,2013-03-21 16:52:00,
2013-03-21 11:57:00,35.2,17.1,30.10,North,0,0.0,0.0,49,0.00,,,0.00,WUHU21623XXSP,2013-03-21 16:57:00,
2013-03-21 12:02:00,34.9,17.6,30.10,North,0,0.0,0.0,47,0.00,,,0.00,WUHU21623XXSP,2013-03-21 17:02:00,
2013-03-21 12:07:00,35.2,17.5,30.10,North,0,0.0,0.0,48,0.00,,,0.00,WUHU21623XXSP,2013-03-21 17:07:00,
2013-03-21 12:12:00,35.4,17.6,30.10,North,0,0.0,0.0,48,0.00,,,0.00,WUHU21623XXSP,2013-03-21 17:12:00,
2013-03-21 12:17:00,35.4,17.6,30.10,North,0,0.0,0.0,48,0.00,,,0.00,WUHU21623XXSP,2013-03-21 17:17:00,
2013-03-21 12:23:00,35.4,17.6,30.09,North,0,0.0,0.0,48,0.00,,,0.00,WUHU21623XXSP,2013-03-21 17:23:00,
2013-03-21 12:28:00,35.4,17.6,30.09,North,0,0.0,0.0,48,0.00,,,0.00,WUHU21623XXSP,2013-03-21 17:28:00,
2013-03-21 12:33:00,35.2,17.6,30.09,North,0,0.0,0.0,48,0.00,,,0.00,WUHU21623XXSP,2013-03-21 17:33:00,
2013-03-21 12:38:00,35.2,17.5,30.08,North,0,0.0,0.0,48,0.00,,,0.00,WUHU21623XXSP,2013-03-21 17:38:00,
2013-03-21 12:43:00,34.9,17.6,30.08,North,0,0.0,0.0,49,0.00,,,0.00,WUHU21623XXSP,2013-03-21 17:43:00,
2013-03-21 12:48:00,34.5,17.3,30.07,North,0,0.0,0.0,49,0.00,,,0.00,WUHU21623XXSP,2013-03-21 17:48:00,
2013-03-21 12:53:00,35.1,17.8,30.07,North,0,0.0,0.0,49,0.00,,,0.00,WUHU21623XXSP,2013-03-21 17:53:00,
2013-03-21 12:58:00,35.6,18.3,30.07,North,0,0.0,0.0,49,0.00,,,0.00,WUHU21623XXSP,2013-03-21 17:58:00,
2013-03-21 13:03:00,35.8,18.0,30.07,North,0,0.0,0.0,48,0.00,,,0.00,WUHU21623XXSP,2013-03-21 18:03:00,
2013-03-21 13:08:00,35.8,18.5,30.07,North,0,0.0,0.0,49,0.00,,,0.00,WUHU21623XXSP,2013-03-21 18:08:00,
2013-03-21 13:13:00,35.4,18.2,30.07,North,0,0.0,0.0,49,0.00,,,0.00,WUHU21623XXSP,2013-03-21 18:13:00,
2013-03-21 13:18:00,35.4,17.6,30.06,North,0,0.0,0.0,48,0.00,,,0.00,WUHU21623XXSP,2013-03-21 18:18:00,
2013-03-21 13:23:00,36.1,18.3,30.06,North,0,0.0,0.0,48,0.00,,,0.00,WUHU21623XXSP,2013-03-21 18:23:00,
2013-03-21 13:28:00,36.9,18.6,30.05,North,0,0.0,0.0,48,0.00,,,0.00,WUHU21623XXSP,2013-03-21 18:28:00,
2013-03-21 13:33:00,37.2,18.8,30.05,North,0,0.0,0.0,47,0.00,,,0.00,WUHU21623XXSP,2013-03-21 18:33:00,
2013-03-21 13:38:00,37.0,18.2,30.05,North,0,0.0,0.0,45,0.00,,,0.00,WUHU21623XXSP,2013-03-21 18:38:00,
2013-03-21 13:43:00,36.3,17.1,30.05,North,0,0.0,0.0,46,0.00,,,0.00,WUHU21623XXSP,2013-03-21 18:43:00,
2013-03-21 13:48:00,36.1,17.3,30.04,North,0,0.0,0.0,46,0.00,,,0.00,WUHU21623XXSP,2013-03-21 18:48:00,
2013-03-21 13:53:00,36.1,17.3,30.04,North,0,0.0,0.0,46,0.00,,,0.00,WUHU21623XXSP,2013-03-21 18:53:00,
2013-03-21 13:58:00,36.1,17.8,30.03,North,0,0.0,0.0,47,0.00,,,0.00,WUHU21623XXSP,2013-03-21 18:58:00,
2013-03-21 14:03:00,36.1,17.8,30.03,North,0,0.0,0.0,47,0.00,,,0.00,WUHU21623XXSP,2013-03-21 19:03:00,
2013-03-21 14:08:00,36.3,18.5,30.03,North,0,0.0,0.0,48,0.00,,,0.00,WUHU21623XXSP,2013-03-21 19:08:00,
2013-03-21 14:13:00,36.9,18.9,30.03,North,0,0.0,0.0,48,0.00,,,0.00,WUHU21623XXSP,2013-03-21 19:13:00,
2013-03-21 14:18:00,37.2,19.3,30.02,North,0,0.0,0.0,48,0.00,,,0.00,WUHU21623XXSP,2013-03-21 19:18:00,
2013-03-21 14:23:00,38.3,20.4,30.02,North,0,0.0,0.0,47,0.00,,,0.00,WUHU21623XXSP,2013-03-21 19:23:00,
2013-03-21 14:28:00,38.1,19.4,30.02,North,0,0.0,0.0,47,0.00,,,0.00,WUHU21623XXSP,2013-03-21 19:28:00,
2013-03-21 14:33:00,37.9,18.9,30.02,North,0,0.0,0.0,46,0.00,,,0.00,WUHU21623XXSP,2013-03-21 19:33:00,
2013-03-21 14:38:00,37.9,19.4,30.02,North,0,0.0,0.0,47,0.00,,,0.00,WUHU21623XXSP,2013-03-21 19:38:00,
2013-03-21 14:43:00,37.9,19.4,30.02,North,0,0.0,0.0,47,0.00,,,0.00,WUHU21623XXSP,2013-03-21 19:43:00,
2013-03-21 14:48:00,37.9,19.4,30.02,North,0,0.0,0.0,47,0.00,,,0.00,WUHU21623XXSP,2013-03-21 19:48:00,
2013-03-21 14:53:00,37.4,18.9,30.01,North,0,0.0,0.0,47,0.00,,,0.00,WUHU21623XXSP,2013-03-21 19:53:00,
2013-03-21 14:58:00,37.6,19.6,30.01,North,0,0.0,0.0,48,0.00,,,0.00,WUHU21623XXSP,2013-03-21 19:58:00,
2013-03-21 15:03:00,37.8,19.6,30.00,North,0,0.0,0.0,48,0.00,,,0.00,WUHU21623XXSP,2013-03-21 20:03:00,
2013-03-21 15:09:00,38.5,20.1,30.00,North,0,0.0,0.0,48,0.00,,,0.00,WUHU21623XXSP,2013-03-21 20:09:00,
2013-03-21 15:14:00,38.8,20.2,30.00,North,0,0.0,0.0,47,0.00,,,0.00,WUHU21623XXSP,2013-03-21 20:14:00,
2013-03-21 15:19:00,39.0,19.9,30.00,North,0,0.0,0.0,46,0.00,,,0.00,WUHU21623XXSP,2013-03-21 20:19:00,
2013-03-21 15:24:00,38.8,20.2,30.00,North,0,0.0,0.0,47,0.00,,,0.00,WUHU21623XXSP,2013-03-21 20:24:00,
2013-03-21 15:29:00,38.8,20.2,30.00,North,0,0.0,0.0,47,0.00,,,0.00,WUHU21623XXSP,2013-03-21 20:29:00,
2013-03-21 15:34:00,39.0,20.4,30.00,North,0,0.0,0.0,47,0.00,,,0.00,WUHU21623XXSP,2013-03-21 20:34:00,
2013-03-21 15:39:00,39.4,20.4,30.00,North,0,0.0,0.0,47,0.00,,,0.00,WUHU21623XXSP,2013-03-21 20:39:00,
2013-03-21 15:44:00,39.6,20.9,29.99,North,0,0.0,0.0,47,0.00,,,0.00,WUHU21623XXSP,2013-03-21 20:44:00,
2013-03-21 15:49:00,39.7,20.5,29.99,North,0,0.0,0.0,46,0.00,,,0.00,WUHU21623XXSP,2013-03-21 20:49:00,
2013-03-21 15:54:00,39.4,19.8,30.00,North,0,0.0,0.0,45,0.00,,,0.00,WUHU21623XXSP,2013-03-21 20:54:00,
2013-03-21 15:59:00,39.0,19.3,29.99,North,0,0.0,0.0,45,0.00,,,0.00,WUHU21623XXSP,2013-03-21 20:59:00,
2013-03-21 16:04:00,39.0,18.8,29.99,North,0,0.0,0.0,44,0.00,,,0.00,WUHU21623XXSP,2013-03-21 21:04:00,
2013-03-21 16:09:00,39.0,18.8,29.99,North,0,0.0,0.0,44,0.00,,,0.00,WUHU21623XXSP,2013-03-21 21:09:00,
2013-03-21 16:14:00,38.8,18.3,29.99,North,0,0.0,0.0,44,0.00,,,0.00,WUHU21623XXSP,2013-03-21 21:14:00,
2013-03-21 16:20:00,38.7,18.5,29.99,North,0,0.0,0.0,44,0.00,,,0.00,WUHU21623XXSP,2013-03-21 21:20:00,
2013-03-21 16:25:00,38.1,18.0,29.99,North,0,0.0,0.0,44,0.00,,,0.00,WUHU21623XXSP,2013-03-21 21:25:00,
2013-03-21 16:30:00,37.8,18.2,29.99,North,0,0.0,0.0,45,0.00,,,0.00,WUHU21623XXSP,2013-03-21 21:30:00,
2013-03-21 16:35:00,37.8,18.7,29.99,North,0,0.0,0.0,46,0.00,,,0.00,WUHU21623XXSP,2013-03-21 21:35:00,
2013-03-21 16:40:00,37.9,18.9,29.99,North,0,0.0,0.0,46,0.00,,,0.00,WUHU21623XXSP,2013-03-21 21:40:00,
2013-03-21 16:45:00,37.9,18.9,29.99,North,0,0.0,0.0,46,0.00,,,0.00,WUHU21623XXSP,2013-03-21 21:45:00,
2013-03-21 16:50:00,37.6,18.9,29.99,North,0,0.0,0.0,46,0.00,,,0.00,WUHU21623XXSP,2013-03-21 21:50:00,
2013-03-21 16:55:00,37.4,18.6,29.99,North,0,0.0,0.0,46,0.00,,,0.00,WUHU21623XXSP,2013-03-21 21:55:00,
2013-03-21 17:00:00,37.4,18.9,29.99,North,0,0.0,0.0,47,0.00,,,0.00,WUHU21623XXSP,2013-03-21 22:00:00,
2013-03-21 17:05:00,37.6,19.1,29.99,North,0,0.0,0.0,47,0.00,,,0.00,WUHU21623XXSP,2013-03-21 22:05:00,
2013-03-21 17:10:00,37.6,19.1,29.99,North,0,0.0,0.0,47,0.00,,,0.00,WUHU21623XXSP,2013-03-21 22:10:00,
2013-03-21 17:15:00,37.8,19.8,29.99,North,0,0.0,0.0,48,0.00,,,0.00,WUHU21623XXSP,2013-03-21 22:15:00,
2013-03-21 17:20:00,37.8,19.8,29.99,North,0,0.0,0.0,48,0.00,,,0.00,WUHU21623XXSP,2013-03-21 22:20:00,
2013-03-21 17:25:00,37.8,19.8,29.99,North,0,0.0,0.0,48,0.00,,,0.00,WUHU21623XXSP,2013-03-21 22:25:00,
2013-03-21 17:30:00,37.6,19.6,29.99,North,0,0.0,0.0,48,0.00,,,0.00,WUHU21623XXSP,2013-03-21 22:30:00,
2013-03-21 17:35:00,37.4,19.4,29.98,North,0,0.0,0.0,48,0.00,,,0.00,WUHU21623XXSP,2013-03-21 22:35:00,
2013-03-21 17:40:00,37.0,19.3,29.98,North,0,0.0,0.0,48,0.00,,,0.00,WUHU21623XXSP,2013-03-21 22:40:00,
2013-03-21 17:45:00,36.9,19.5,29.98,North,0,0.0,0.0,49,0.00,,,0.00,WUHU21623XXSP,2013-03-21 22:45:00,
2013-03-21 17:50:00,36.7,19.3,29.98,North,0,0.0,0.0,49,0.00,,,0.00,WUHU21623XXSP,2013-03-21 22:50:00,
2013-03-21 17:55:00,36.3,19.0,29.98,North,0,0.0,0.0,49,0.00,,,0.00,WUHU21623XXSP,2013-03-21 22:55:00,
2013-03-21 18:00:00,36.3,19.5,29.98,North,0,0.0,0.0,50,0.00,,,0.00,WUHU21623XXSP,2013-03-21 23:00:00,
2013-03-21 18:05:00,36.1,19.3,29.98,North,0,0.0,0.0,50,0.00,,,0.00,WUHU21623XXSP,2013-03-21 23:05:00,
2013-03-21 18:10:00,35.8,19.2,29.98,North,0,0.0,0.0,50,0.00,,,0.00,WUHU21623XXSP,2013-03-21 23:10:00,
2013-03-21 18:15:00,35.8,19.0,29.98,North,0,0.0,0.0,50,0.00,,,0.00,WUHU21623XXSP,2013-03-21 23:15:00,
2013-03-21 18:20:00,35.8,19.0,29.98,North,0,0.0,0.0,50,0.00,,,0.00,WUHU21623XXSP,2013-03-21 23:20:00,
2013-03-21 18:25:00,35.4,19.1,29.98,North,0,0.0,0.0,51,0.00,,,0.00,WUHU21623XXSP,2013-03-21 23:25:00,
2013-03-21 18:30:00,35.4,19.1,29.98,North,0,0.0,0.0,51,0.00,,,0.00,WUHU21623XXSP,2013-03-21 23:30:00,
2013-03-21 18:35:00,35.2,18.9,29.98,North,0,0.0,0.0,51,0.00,,,0.00,WUHU21623XXSP,2013-03-21 23:35:00,
2013-03-21 18:40:00,34.9,18.9,29.98,North,0,0.0,0.0,51,0.00,,,0.00,WUHU21623XXSP,2013-03-21 23:40:00,
2013-03-21 18:45:00,34.9,18.6,29.98,North,0,0.0,0.0,51,0.00,,,0.00,WUHU21623XXSP,2013-03-21 23:45:00,
2013-03-21 18:50:00,34.7,18.4,29.98,North,0,0.0,0.0,51,0.00,,,0.00,WUHU21623XXSP,2013-03-21 23:50:00,
2013-03-21 18:55:00,34.5,18.6,29.98,North,0,0.0,0.0,52,0.00,,,0.00,WUHU21623XXSP,2013-03-21 23:55:00,
2013-03-21 19:00:00,34.3,18.5,29.98,North,0,0.0,0.0,52,0.00,,,0.00,WUHU21623XXSP,2013-03-22 00:00:00,
2013-03-21 19:05:00,34.3,18.5,29.98,North,0,0.0,0.0,52,0.00,,,0.00,WUHU21623XXSP,2013-03-22 00:05:00,
2013-03-21 19:10:00,34.3,18.9,29.98,North,0,0.0,0.0,53,0.00,,,0.00,WUHU21623XXSP,2013-03-22 00:10:00,
2013-03-21 19:15:00,34.3,18.9,29.98,North,0,0.0,0.0,53,0.00,,,0.00,WUHU21623XXSP,2013-03-22 00:15:00,
2013-03-21 19:20:00,34.2,18.9,29.98,North,0,0.0,0.0,53,0.00,,,0.00,WUHU21623XXSP,2013-03-22 00:20:00,
2013-03-21 19:25:00,34.0,19.0,29.97,North,0,0.0,0.0,54,0.00,,,0.00,WUHU21623XXSP,2013-03-22 00:25:00,
2013-03-21 19:30:00,34.0,19.0,29.97,North,0,0.0,0.0,54,0.00,,,0.00,WUHU21623XXSP,2013-03-22 00:30:00,
2013-03-21 19:35:00,33.6,18.6,29.98,North,0,0.0,0.0,54,0.00,,,0.00,WUHU21623XXSP,2013-03-22 00:35:00,
2013-03-21 19:40:00,33.6,19.1,29.98,North,0,0.0,0.0,55,0.00,,,0.00,WUHU21623XXSP,2013-03-22 00:40:00,
2013-03-21 19:45:00,33.6,19.1,29.98,North,0,0.0,0.0,55,0.00,,,0.00,WUHU21623XXSP,2013-03-22 00:45:00,
2013-03-21 19:50:00,33.6,19.1,29.98,North,0,0.0,0.0,55,0.00,,,0.00,WUHU21623XXSP,2013-03-22 00:50:00,
2013-03-21 19:55:00,33.4,18.9,29.98,North,0,0.0,0.0,55,0.00,,,0.00,WUHU21623XXSP,2013-03-22 00:55:00,
2013-03-21 20:00:00,33.4,18.9,29.99,North,0,0.0,0.0,55,0.00,,,0.00,WUHU21623XXSP,2013-03-22 01:00:00,
2013-03-21 20:05:00,33.4,19.3,29.99,North,0,0.0,0.0,56,0.00,,,0.00,WUHU21623XXSP,2013-03-22 01:05:00,
2013-03-21 20:10:00,33.4,19.3,29.99,North,0,0.0,0.0,56,0.00,,,0.00,WUHU21623XXSP,2013-03-22 01:10:00,
2013-03-21 20:15:00,33.3,19.6,29.99,North,0,0.0,0.0,57,0.00,,,0.00,WUHU21623XXSP,2013-03-22 01:15:00,
2013-03-21 20:20:00,33.1,19.4,29.99,North,0,0.0,0.0,57,0.00,,,0.00,WUHU21623XXSP,2013-03-22 01:20:00,
2013-03-21 20:25:00,33.1,19.4,29.99,North,0,0.0,0.0,57,0.00,,,0.00,WUHU21623XXSP,2013-03-22 01:25:00,
2013-03-21 20:30:00,33.1,19.4,29.99,North,0,0.0,0.0,57,0.00,,,0.00,WUHU21623XXSP,2013-03-22 01:30:00,
2013-03-21 20:35:00,33.1,19.4,29.99,North,0,0.0,0.0,57,0.00,,,0.00,WUHU21623XXSP,2013-03-22 01:35:00,
2013-03-21 20:40:00,33.1,19.4,29.99,North,0,0.0,0.0,58,0.00,,,0.00,WUHU21623XXSP,2013-03-22 01:40:00,
2013-03-21 20:45:00,33.1,19.9,29.99,North,0,0.0,0.0,58,0.00,,,0.00,WUHU21623XXSP,2013-03-22 01:45:00,
2013-03-21 20:50:00,33.1,19.9,30.00,North,0,0.0,0.0,58,0.00,,,0.00,WUHU21623XXSP,2013-03-22 01:50:00,
2013-03-21 20:55:00,33.3,19.9,30.00,North,0,0.0,0.0,57,0.00,,,0.00,WUHU21623XXSP,2013-03-22 01:55:00,
2013-03-21 21:00:00,33.1,19.4,30.00,North,0,0.0,0.0,57,0.00,,,0.00,WUHU21623XXSP,2013-03-22 02:00:00,
2013-03-21 21:05:00,33.1,19.9,30.00,North,0,0.0,0.0,58,0.00,,,0.00,WUHU21623XXSP,2013-03-22 02:05:00,
2013-03-21 21:10:00,33.1,19.4,30.00,North,0,0.0,0.0,57,0.00,,,0.00,WUHU21623XXSP,2013-03-22 02:10:00,
2013-03-21 21:15:00,33.1,19.9,30.00,North,0,0.0,0.0,58,0.00,,,0.00,WUHU21623XXSP,2013-03-22 02:15:00,
2013-03-21 21:20:00,33.1,19.9,30.00,North,0,0.0,0.0,58,0.00,,,0.00,WUHU21623XXSP,2013-03-22 02:20:00,
2013-03-21 21:25:00,32.9,19.7,30.00,North,0,0.0,0.0,58,0.00,,,0.00,WUHU21623XXSP,2013-03-22 02:25:00,
2013-03-21 21:31:00,32.9,19.7,30.00,North,0,0.0,0.0,58,0.00,,,0.00,WUHU21623XXSP,2013-03-22 02:31:00,
2013-03-21 21:36:00,32.9,19.7,30.00,North,0,0.0,0.0,58,0.00,,,0.00,WUHU21623XXSP,2013-03-22 02:36:00,
2013-03-21 21:41:00,32.9,19.7,30.00,North,0,0.0,0.0,58,0.00,,,0.00,WUHU21623XXSP,2013-03-22 02:41:00,
2013-03-21 21:46:00,32.7,19.5,30.00,North,0,0.0,0.0,58,0.00,,,0.00,WUHU21623XXSP,2013-03-22 02:46:00,
2013-03-21 21:51:00,32.7,19.5,30.00,North,0,0.0,0.0,58,0.00,,,0.00,WUHU21623XXSP,2013-03-22 02:51:00,
2013-03-21 21:56:00,32.7,19.5,30.00,North,0,0.0,0.0,58,0.00,,,0.00,WUHU21623XXSP,2013-03-22 02:56:00,
2013-03-21 22:01:00,32.7,19.5,30.01,North,0,0.0,0.0,58,0.00,,,0.00,WUHU21623XXSP,2013-03-22 03:01:00,
2013-03-21 22:06:00,32.7,19.5,30.00,North,0,0.0,0.0,58,0.00,,,0.00,WUHU21623XXSP,2013-03-22 03:06:00,
2013-03-21 22:11:00,32.7,19.5,30.00,North,0,0.0,0.0,58,0.00,,,0.00,WUHU21623XXSP,2013-03-22 03:11:00,
2013-03-21 22:16:00,32.5,19.4,30.01,North,0,0.0,0.0,58,0.00,,,0.00,WUHU21623XXSP,2013-03-22 03:16:00,
2013-03-21 22:21:00,32.5,19.4,30.01,North,0,0.0,0.0,58,0.00,,,0.00,WUHU21623XXSP,2013-03-22 03:21:00,
2013-03-21 22:26:00,32.4,19.2,30.01,North,0,0.0,0.0,58,0.00,,,0.00,WUHU21623XXSP,2013-03-22 03:26:00,
2013-03-21 22:31:00,32.4,19.2,30.01,North,0,0.0,0.0,58,0.00,,,0.00,WUHU21623XXSP,2013-03-22 03:31:00,
2013-03-21 22:36:00,32.2,19.1,30.01,North,0,0.0,0.0,58,0.00,,,0.00,WUHU21623XXSP,2013-03-22 03:36:00,
2013-03-21 22:41:00,32.2,19.1,30.01,North,0,0.0,0.0,58,0.00,,,0.00,WUHU21623XXSP,2013-03-22 03:41:00,
2013-03-21 22:46:00,32.2,19.1,30.01,North,0,0.0,0.0,58,0.00,,,0.00,WUHU21623XXSP,2013-03-22 03:46:00,
2013-03-21 22:51:00,32.2,19.1,30.01,North,0,0.0,0.0,58,0.00,,,0.00,WUHU21623XXSP,2013-03-22 03:51:00,
2013-03-21 22:56:00,32.2,19.1,30.01,North,0,0.0,0.0,58,0.00,,,0.00,WUHU21623XXSP,2013-03-22 03:56:00,
2013-03-21 23:01:00,32.0,19.3,30.01,North,0,0.0,0.0,59,0.00,,,0.00,WUHU21623XXSP,2013-03-22 04:01:00,
2013-03-21 23:04:00,31.8,19.3,30.00,North,0,0.0,0.0,59,0.00,,,0.00,WUHU21623XXSP,2013-03-22 04:04:00,
2013-03-21 23:09:00,31.8,19.1,30.00,North,0,0.0,0.0,59,0.00,,,0.00,WUHU21623XXSP,2013-03-22 04:09:00,
2013-03-21 23:11:00,31.8,19.1,30.00,North,0,0.0,0.0,59,0.00,,,0.00,WUHU21623XXSP,2013-03-22 04:11:00,
2013-03-21 23:16:00,31.8,19.1,30.00,North,0,0.0,0.0,59,0.00,,,0.00,WUHU21623XXSP,2013-03-22 04:16:00,
2013-03-21 23:22:00,31.8,19.1,30.01,North,0,0.0,0.0,59,0.00,,,0.00,WUHU21623XXSP,2013-03-22 04:22:00,
2013-03-21 23:24:00,31.8,19.1,30.01,North,0,0.0,0.0,59,0.00,,,0.00,WUHU21623XXSP,2013-03-22 04:24:00,
2013-03-21 23:29:00,31.8,19.1,30.01,North,0,0.0,0.0,59,0.00,,,0.00,WUHU21623XXSP,2013-03-22 04:29:00,
2013-03-21 23:34:00,31.6,19.0,30.01,North,0,0.0,0.0,59,0.00,,,0.00,WUHU21623XXSP,2013-03-22 04:34:00,
2013-03-21 23:39:00,31.6,19.0,30.01,North,0,0.0,0.0,59,0.00,,,0.00,WUHU21623XXSP,2013-03-22 04:39:00,
2013-03-21 23:44:00,31.6,19.0,30.02,North,0,0.0,0.0,59,0.00,,,0.00,WUHU21623XXSP,2013-03-22 04:44:00,
2013-03-21 23:49:00,31.6,19.0,30.02,North,0,0.0,0.0,59,0.00,,,0.00,WUHU21623XXSP,2013-03-22 04:49:00,
2013-03-21 23:54:00,31.6,19.0,30.02,North,0,0.0,0.0,59,0.00,,,0.00,WUHU21623XXSP,2013-03-22 04:54:00,
2013-03-21 23:59:00,31.6,19.0,30.02,North,0,0.0,0.0,59,0.00,,,0.00,WUHU21623XXSP,2013-03-22 04:59:00,